This is the latest recevied weather packets stored in our database for station/object N3FU-13. If no packets are shown the sender has not sent any weather packets the latest 10 day(s).
| Time | Temp. | Humidity | Pressure | Rain* | Wind** | Luminosity | Snow |
|---|---|---|---|---|---|---|---|
| 1777060649 | 31.11° C | 49% | 1011.6 hPa | 0 mm | - | - | - |
| 1777059748 | 30.56° C | 50% | 1011.8 hPa | 0 mm | - | - | - |
| 1777058849 | 30.56° C | 50% | 1012 hPa | 0 mm | - | - | - |
| 1777057949 | 30.56° C | 52% | 1012.1 hPa | 0 mm | - | - | - |
| 1777057049 | 30.56° C | 52% | 1012.4 hPa | 0 mm | - | - | - |
| 1777056149 | 31.11° C | 53% | 1012.6 hPa | 0 mm | - | - | - |
| 1777055249 | 31.11° C | 51% | 1012.6 hPa | 0 mm | - | - | - |
| 1777054349 | 31.11° C | 52% | 1012.7 hPa | 0 mm | - | - | - |
| 1777053449 | 32.22° C | 49% | 1012.9 hPa | 0 mm | - | - | - |
| 1777052549 | 32.22° C | 47% | 1012.9 hPa | 0 mm | - | - | - |
| 1777051649 | 32.22° C | 45% | 1013.1 hPa | 0 mm | - | - | - |
| 1777050749 | 32.22° C | 45% | 1013.3 hPa | 0 mm | - | - | - |
| 1777049849 | 32.22° C | 46% | 1013.5 hPa | 0 mm | - | - | - |
| 1777048949 | 31.67° C | 47% | 1013.7 hPa | 0 mm | - | - | - |
| 1777048049 | 31.11° C | 49% | 1013.9 hPa | 0 mm | - | - | - |
| 1777047149 | 30° C | 51% | 1014.1 hPa | 0 mm | - | - | - |
| 1777046249 | 30° C | 52% | 1014.4 hPa | 0 mm | - | - | - |
| 1777045349 | 29.44° C | 53% | 1014.5 hPa | 0 mm | - | - | - |
| 1777044449 | 28.89° C | 53% | 1014.6 hPa | 0 mm | - | - | - |
| 1777043549 | 28.33° C | 55% | 1014.7 hPa | 0 mm | - | - | - |
| 1777042649 | 28.33° C | 56% | 1014.7 hPa | 0 mm | - | - | - |
| 1777041749 | 27.22° C | 58% | 1014.8 hPa | 0 mm | - | - | - |
| 1777040849 | 26.67° C | 60% | 1014.7 hPa | 0 mm | - | - | - |
| 1777039949 | 26.11° C | 62% | 1014.8 hPa | 0 mm | - | - | - |
| 1777039049 | 25.56° C | 64% | 1014.8 hPa | 0 mm | - | - | - |
* Rain latest hour (hover to see other rain measurements)
** Current wind speed in m/s (hover to see current wind gust speed)